Location: Overspoor
(51.4747°N, 5.6641°E)
Time: 20:48:57
(UTC+02:00)

RS-15 - Pass Details

Date: 29 June 2022
Orbit: 1881 x 2163 km, 64.8° (Epoch: 15 August)

Event Time Altitude Azimuth Distance (km) Brightness Sun altitude
Rises 00:41:23 0° 315° (NW) 5,692 11.5 -14.2°
Reaches altitude 10° 00:44:52 10° 316° (NW) 4,692 11.0 -14.3°
Maximum altitude 00:57:21 83° 46° (NE) 2,166 8.3 -14.7°
Drops below altitude 10° 01:09:28 10° 136° (SE) 4,568 9.5 -15.0°
Enters shadow 01:10:31 - 136° (SE) 4,870 9.6 -15.0°
